Regional Weather Roundup
Issued by NWS

Home | Current Version | Previous Version | Text Only | Print | Product List | Glossary Off
Versions: 1 2 3 4 5 6 7 8 9 10 11 12 13 14 15 16 17 18 19 20 21 22 23 24 25 26 27 28 29 30 31 32 33 34 35 36 37 38 39 40 41 42 43 44 45 46 47 48 49

000
ASUS45 KBOU 302107
RWRCO

WEATHER ROUNDUP FOR COLORADO
NATIONAL WEATHER SERVICE DENVER/BOULDER CO
300 PM MDT SAT APR 30 2016

NOTE: "FAIR" INDICATES FEW OR NO CLOUDS BELOW 12000 FEET WITH NO
SIGNIFICANT WEATHER AND/OR OBSTRUCTIONS TO VISIBILITY.

COZ001>005-013-030-031-302200-
...NORTHWEST COLORADO...

CITY           SKY/WX    TMP DP  RH WIND       PRES   REMARKS
CRAIG          CLOUDY    41  34  76 E9        29.97R
HAYDEN         FAIR      43  25  49 S8        29.95S
MEEKER         LGT RAIN  44  32  62 SW3       29.93F
MOUNT WERNER   NOT AVBL
STEAMBOAT SPGS CLOUDY    41  24  51 NE10      29.95S
WALDEN         CLOUDY    32  19  59 NE15G21   30.02S WCI  22
$$

COZ006>008-011-302200-
...WEST CENTRAL VALLEYS...

CITY           SKY/WX    TMP DP  RH WIND       PRES   REMARKS
GRAND JUNCTION CLOUDY    52  31  44 VRB3      29.89S
MONTROSE       FAIR      51  33  50 SW12G23   29.89R
EAGLE          LGT RAIN  39  37  93 W7        29.95S
RIFLE          CLOUDY    51  31  46 N12G17    29.90S
DELTA          NOT AVBL
NUCLA          NOT AVBL
$$

COZ017>023-064>068-302200-
...SOUTHWEST COLORADO...

CITY           SKY/WX    TMP DP  RH WIND       PRES   REMARKS
DURANGO        CLOUDY    54  28  36 E10       29.82F
CORTEZ         CLOUDY    54  32  43 VRB6      29.84F
PAGOSA SPRINGS RAIN      43  31  62 N10G20    29.88S
TELLURIDE      PTSUNNY   42  23  47 W5        29.93S
WOLF CREEK PAS LGT SNOW  27  27 100 SW18      29.99R WCI  13
$$

COZ009-010-012-014-032>034-037-058>063-302200-
...CENTRAL COLORADO...

CITY           SKY/WX    TMP DP  RH WIND       PRES   REMARKS
ASPEN          CLOUDY    41  29  62 NW6       29.90S
BUENA VISTA    CLOUDY    40  30  67 N8        29.90R
COPPER MTN     NOT AVBL
BERTHOUD PASS  SNOW      16   5  62 SE10G18   29.97R VSB<1/4 WCI   3
COTTONWOOD PAS LGT SNOW  36  32  87 CALM      29.93R
GUNNISON       FAIR      48  25  40 SW15      29.89F
KREMMLING      CLOUDY    39  23  52 NW13G20   29.96S
LEADVILLE      LGT SNOW  30  24  78 N8        29.91R WCI  22
MONARCH PASS   CLOUDY    23  21  93 MISG      30.05S
SALIDA         CLOUDY    37  34  91 SE10G16   29.98R
SUNLIGHT       LGT SNOW  30  30 100 CALM      30.00S
WILKERSON PASS FOG       21  18  86 E8        29.97S VSB 1/4 WCI  12
$$

COZ069>075-302200-
...SAN LUIS VALLEY/SANGRE DE CRISTO MOUNTAINS...

CITY           SKY/WX    TMP DP  RH WIND       PRES   REMARKS
ALAMOSA        LGT RAIN  48  30  49 NW7       29.84S
LA VETA PASS   FOG       27  23  86 MISG      29.94R VSB<1/4
SAGUACHE       FAIR      46  30  53 NE10G18   29.86S
$$

COZ035-036-038>040-302200-
...NORTHERN COLORADO FRONT RANGE...

CITY           SKY/WX    TMP DP  RH WIND       PRES   REMARKS
DENVER INTL AP LGT SNOW  34  30  85 N18G30    30.02R VSB 3/4 WCI  23
DMNS CITY PARK   N/A     37  34  89 N12G21    30.04R
AURORA         LGT SNOW  32  32 100 N20       30.03S FOG     WCI  20
FRONT RANGE AP LGT SNOW  34  32  93 N17G25    30.02R VSB 1   WCI  23
ERIE MUNI ARPT DRIZZLE   38  35  86 N22       30.05R
BOULDER MUN AP CLOUDY    39  32  75 N18G26    30.05R
CENTENNIAL     LGT SNOW  33  31  92 N21G30    30.02R VSB 1   WCI  21
BROOMFIELD     LGT SNOW  37  34  87 N17G23    30.04R
FORT COLLINS   CLOUDY    36  32  87 N15       30.07R
LONGMONT       MIX PCPN  40  34  78 N17G26    30.07R
$$

COZ041-046-047-076>085-087-088-302200-
...PIKES PEAK/PALMER DIVIDE AND SOUTHERN FOOTHILLS...

CITY           SKY/WX    TMP DP  RH WIND       PRES   REMARKS
COLO. SPRINGS  CLOUDY    36  26  67 NW22G37   29.97R
A. F. ACADEMY  LGT RAIN  32  27  80 NW23G32   29.96R WCI  19
SCHRIEVER AFB  NOT AVBL
ELLICOTT       NOT AVBL
FALCON         FAIR      34  25  69 N30G38    29.94S WCI  21
FORT CARSON    FAIR      41  27  59 N26G45    29.94R
LIMON          LGT SNOW  33  30  88 NW30      29.94S FOG     WCI  19
MONUMENT HILL  CLOUDY    30  28  93 N23G35    30.00R FOG     WCI  17
TRINIDAD       CLOUDY    40  31  70 N10       29.96R
$$

COZ042>045-048>051-090-091-302200-
...NORTHEAST COLORADO...

CITY           SKY/WX    TMP DP  RH WIND       PRES   REMARKS
GREELEY ARPT   CLOUDY    37  34  87 N21       30.05R
AKRON          LGT SNOW  33  31  92 N25       29.94R VSB 3/4 WCI  20
BURLINGTON     FLURRIES  36  31  82 N22       29.90S
WRAY           NOT AVBL
STERLING       LGT SNOW  34  34 100 N17G26    29.96R WCI  23
HOLYOKE        NOT AVBL
FORT MORGAN    LGT RAIN  35  33  91 N25       30.00R WCI  22
$$

COZ086-089-092>099-302200-
...SOUTHEAST COLORADO...

CITY           SKY/WX    TMP DP  RH WIND       PRES   REMARKS
PUEBLO         CLOUDY    47  29  49 N17       29.96R
LA JUNTA       PTSUNNY   47  32  56 N25G33    29.97R
LAMAR          CLOUDY    49  35  58 NW20G29   29.90S
SPRINGFIELD      N/A     48  31  51 NW25G33   29.90S
$$



USA.gov is the U.S. government's official web portal to all federal, state and local government web resources and services.